Location: Berlijn
(52.5200°N, 13.4050°E)
Time: 22:23:01
(UTC+02:00)

Envisat - Visible Passes

Search period start: 21 September 2021 00:00
Search period end: 01 October 2021 00:00
Orbit: 764 x 766 km, 98.2° (Epoch: 21 September)

Date Brightness Start Highest point End Pass type
(mag) Time Alt. Az. Time Alt. Az. Time Alt. Az.
21 Sep 5.8 05:07:16 10° NE 05:10:47 18° E 05:14:17 10° SE visible
22 Sep 3.9 06:08:30 10° NNE 06:13:31 55° E 06:18:30 10° S visible
23 Sep 5.2 05:32:00 10° NNE 05:36:25 29° E 05:40:48 10° SSE visible
24 Sep 6.0 04:56:12 10° NE 04:59:07 15° E 05:02:01 10° ESE visible
25 Sep 4.3 05:57:03 10° NNE 06:01:57 45° E 06:06:49 10° S visible
26 Sep 5.5 05:20:43 10° NE 05:24:47 24° E 05:28:51 10° SE visible
27 Sep 6.1 04:45:25 10° ENE 04:47:26 12° E 04:49:26 10° ESE visible
27 Sep 3.4 06:22:17 10° NNE 06:27:24 72° ESE 06:32:28 10° S visible
28 Sep 4.7 05:45:38 10° NNE 05:50:22 37° E 05:55:04 10° SSE visible
29 Sep 5.8 05:09:29 10° NE 05:13:09 20° E 05:16:48 10° SE visible
30 Sep 3.7 06:10:48 10° NNE 06:15:51 59° E 06:20:52 10° S visible
30 Sep 6.8 19:15:44 10° W 19:16:21 10° W 19:16:57 10° WNW visible
